AAL624 TIST-TJSJ

Flight info

Callsign AAL624
Flight time 0h 23m
Altitude 14000
Route STT RTE2 SJU
Aircraft A306/H-SDE3FGHIRWY/LB1

Departure

Time 2026-04-24 11:28
Airport Cyril E. King Airport (TIST)

Arrival

Time 2026-04-24 11:51
Airport Luis Munoz Marin International Airport (TJSJ)
Time Latitude Longitude Altitude Speed Heading
2026-04-24 11:15 18.33567 -64.97260 24 ft 0 kts 177°
2026-04-24 11:20 18.33587 -64.97261 26 ft 4 kts 173°
2026-04-24 11:20 18.33614 -64.97264 28 ft 4 kts 176°
2026-04-24 11:20 18.33633 -64.97265 28 ft 4 kts 177°
2026-04-24 11:21 18.33644 -64.97266 28 ft 4 kts 210°
2026-04-24 11:21 18.33651 -64.97246 29 ft 4 kts 267°
2026-04-24 11:21 18.33652 -64.97227 30 ft 4 kts 267°
2026-04-24 11:21 18.33652 -64.97216 30 ft 0 kts 267°
2026-04-24 11:24 18.33650 -64.97261 25 ft 16 kts 267°
2026-04-24 11:24 18.33634 -64.97425 26 ft 24 kts 263°
2026-04-24 11:25 18.33614 -64.97600 30 ft 24 kts 263°
2026-04-24 11:25 18.33603 -64.97773 27 ft 23 kts 266°
2026-04-24 11:25 18.33590 -64.98001 28 ft 24 kts 268°
2026-04-24 11:25 18.33586 -64.98116 28 ft 23 kts 268°
2026-04-24 11:26 18.33585 -64.98286 28 ft 21 kts 287°
2026-04-24 11:26 18.33686 -64.98285 27 ft 18 kts 68°
2026-04-24 11:26 18.33694 -64.98175 27 ft 18 kts 86°
2026-04-24 11:27 18.33696 -64.98146 27 ft 0 kts 87°
2026-04-24 11:27 18.33696 -64.98145 27 ft 0 kts 87°
2026-04-24 11:27 18.33704 -64.97886 27 ft 87 kts 89°
2026-04-24 11:28 18.33744 -64.96869 127 ft 183 kts 88°
2026-04-24 11:28 18.33793 -64.95401 1327 ft 217 kts 89°
2026-04-24 11:28 18.33462 -64.93710 2164 ft 257 kts 115°
2026-04-24 11:28 18.32179 -64.92348 3038 ft 269 kts 152°
2026-04-24 11:29 18.30376 -64.92041 4523 ft 266 kts 186°
2026-04-24 11:29 18.28709 -64.92852 5885 ft 270 kts 220°
2026-04-24 11:29 18.27672 -64.94509 6704 ft 278 kts 250°
2026-04-24 11:29 18.27405 -64.96506 6946 ft 281 kts 265°
2026-04-24 11:30 18.27265 -64.98568 6983 ft 283 kts 264°
2026-04-24 11:30 18.27058 -65.00624 6987 ft 283 kts 263°
2026-04-24 11:30 18.26844 -65.02686 6988 ft 284 kts 263°
2026-04-24 11:30 18.26712 -65.04766 6988 ft 284 kts 267°
2026-04-24 11:31 18.26727 -65.06843 6986 ft 285 kts 272°
2026-04-24 11:31 18.26921 -65.08920 6986 ft 285 kts 277°
2026-04-24 11:31 18.27236 -65.10982 6985 ft 285 kts 279°
2026-04-24 11:31 18.27567 -65.13039 6986 ft 285 kts 279°
2026-04-24 11:32 18.27893 -65.15101 6985 ft 285 kts 279°
2026-04-24 11:32 18.28212 -65.17159 6994 ft 285 kts 278°
2026-04-24 11:32 18.28527 -65.19223 6994 ft 286 kts 278°
2026-04-24 11:32 18.28840 -65.21285 6990 ft 285 kts 278°
2026-04-24 11:33 18.29135 -65.23351 6991 ft 285 kts 276°
2026-04-24 11:33 18.29338 -65.25422 6993 ft 284 kts 274°
2026-04-24 11:33 18.29507 -65.27474 6989 ft 285 kts 274°
2026-04-24 11:33 18.29675 -65.29553 7001 ft 285 kts 274°
2026-04-24 11:34 18.29842 -65.31633 6989 ft 285 kts 274°
2026-04-24 11:34 18.30012 -65.33710 6991 ft 285 kts 274°
2026-04-24 11:34 18.30183 -65.35787 6990 ft 285 kts 274°
2026-04-24 11:34 18.30353 -65.37863 6994 ft 285 kts 274°
2026-04-24 11:35 18.30523 -65.39937 6995 ft 284 kts 274°
2026-04-24 11:35 18.30693 -65.42013 6996 ft 285 kts 274°
2026-04-24 11:35 18.30862 -65.44090 6996 ft 285 kts 274°
2026-04-24 11:35 18.31031 -65.46164 6995 ft 284 kts 274°
2026-04-24 11:36 18.31200 -65.48246 6996 ft 284 kts 274°
2026-04-24 11:36 18.31369 -65.50320 7001 ft 285 kts 274°
2026-04-24 11:36 18.31537 -65.52396 7001 ft 285 kts 274°
2026-04-24 11:36 18.31704 -65.54444 7001 ft 285 kts 274°
2026-04-24 11:37 18.31873 -65.56528 7001 ft 285 kts 274°
2026-04-24 11:37 18.32041 -65.58606 7000 ft 285 kts 274°
2026-04-24 11:37 18.32208 -65.60685 7001 ft 285 kts 274°
2026-04-24 11:37 18.32375 -65.62758 7006 ft 284 kts 274°
2026-04-24 11:38 18.32542 -65.64832 7007 ft 284 kts 274°
2026-04-24 11:38 18.32708 -65.66904 7006 ft 284 kts 274°
2026-04-24 11:38 18.32875 -65.68976 7006 ft 283 kts 274°
2026-04-24 11:38 18.33042 -65.71049 7009 ft 284 kts 274°
2026-04-24 11:39 18.33208 -65.73096 7007 ft 284 kts 274°
2026-04-24 11:39 18.33373 -65.75170 7003 ft 284 kts 274°
2026-04-24 11:39 18.33539 -65.77239 7004 ft 284 kts 274°
2026-04-24 11:39 18.33704 -65.79312 7006 ft 284 kts 274°
2026-04-24 11:40 18.33870 -65.81382 7003 ft 284 kts 274°
2026-04-24 11:40 18.34034 -65.83451 7007 ft 284 kts 274°
2026-04-24 11:40 18.34197 -65.85526 7005 ft 284 kts 274°
2026-04-24 11:40 18.34359 -65.87570 7011 ft 284 kts 274°
2026-04-24 11:41 18.34525 -65.89637 7007 ft 284 kts 274°
2026-04-24 11:41 18.34689 -65.91705 6994 ft 283 kts 274°
2026-04-24 11:41 18.34852 -65.93773 6616 ft 283 kts 274°
2026-04-24 11:41 18.35014 -65.95845 6121 ft 283 kts 274°
2026-04-24 11:42 18.35177 -65.97899 5648 ft 281 kts 274°
2026-04-24 11:42 18.35339 -65.99944 5168 ft 280 kts 274°
2026-04-24 11:42 18.35499 -66.01988 4761 ft 278 kts 274°
2026-04-24 11:42 18.35656 -66.03974 4577 ft 266 kts 274°
2026-04-24 11:43 18.35809 -66.05877 4448 ft 255 kts 274°
2026-04-24 11:43 18.35950 -66.07677 4255 ft 244 kts 274°
2026-04-24 11:43 18.36087 -66.09441 3854 ft 241 kts 274°
2026-04-24 11:43 18.36221 -66.11193 3460 ft 238 kts 274°
2026-04-24 11:44 18.36356 -66.12885 3320 ft 225 kts 274°
2026-04-24 11:44 18.36481 -66.14478 3216 ft 213 kts 274°
2026-04-24 11:44 18.36630 -66.15992 3087 ft 204 kts 278°
2026-04-24 11:44 18.37075 -66.17392 2897 ft 200 kts 298°
2026-04-24 11:45 18.37943 -66.18515 2676 ft 199 kts 320°
2026-04-24 11:45 18.39134 -66.19211 2430 ft 195 kts 341°
2026-04-24 11:45 18.40449 -66.19527 2151 ft 194 kts 352°
2026-04-24 11:45 18.41778 -66.19692 1983 ft 187 kts
2026-04-24 11:46 18.42858 -66.19124 1816 ft 175 kts 55°
2026-04-24 11:46 18.43338 -66.18005 1614 ft 161 kts 79°
2026-04-24 11:46 18.43425 -66.16841 1506 ft 162 kts 93°
2026-04-24 11:46 18.43398 -66.15649 1494 ft 164 kts 93°
2026-04-24 11:47 18.43388 -66.14448 1497 ft 164 kts 92°
2026-04-24 11:47 18.43381 -66.13247 1509 ft 164 kts 93°
2026-04-24 11:47 18.43375 -66.12050 1501 ft 163 kts 92°
2026-04-24 11:47 18.43371 -66.10854 1494 ft 163 kts 92°
2026-04-24 11:48 18.43370 -66.09675 1504 ft 163 kts 92°
2026-04-24 11:48 18.43371 -66.08517 1355 ft 150 kts 92°
2026-04-24 11:48 18.43366 -66.07482 1154 ft 133 kts 92°
2026-04-24 11:48 18.43364 -66.06548 986 ft 125 kts 92°
2026-04-24 11:49 18.43364 -66.06050 888 ft 124 kts 91°
2026-04-24 11:49 18.43365 -66.05860 851 ft 124 kts 91°
2026-04-24 11:49 18.43364 -66.05635 832 ft 124 kts 91°
2026-04-24 11:49 18.43363 -66.04722 689 ft 125 kts 91°
2026-04-24 11:50 18.43359 -66.03810 490 ft 125 kts 90°
2026-04-24 11:50 18.43361 -66.02900 334 ft 124 kts 90°
2026-04-24 11:50 18.43358 -66.01990 177 ft 124 kts 90°
2026-04-24 11:50 18.43354 -66.01081 33 ft 123 kts 90°
2026-04-24 11:51 18.43355 -66.00287 26 ft 86 kts 90°
2026-04-24 11:51 18.43354 -65.99812 29 ft 53 kts 89°
2026-04-24 11:51 18.43375 -65.99583 25 ft 15 kts 63°
2026-04-24 11:51 18.43462 -65.99547 30 ft 15 kts
2026-04-24 11:52 18.43547 -65.99571 30 ft 13 kts 303°
2026-04-24 11:52 18.43559 -65.99664 27 ft 13 kts 269°
2026-04-24 11:52 18.43557 -65.99762 25 ft 13 kts 271°